Time,TemperatureF,DewpointF,PressureIn,WindDirection,WindDirectionDegrees,WindSpeedMPH,WindSpeedGustMPH,Humidity,HourlyPrecipIn,Conditions,Clouds,dailyrainin,SoftwareType,DateUTC
2013-01-01 00:00:00,32.0,22.7,29.83,WSW,248,4.3,10.3,68,0.00,,,0.00,WUHU216HW,2013-01-01 05:00:00,
2013-01-01 00:01:00,32.0,22.7,29.83,SW,225,8.9,10.3,68,0.00,,,0.00,WUHU216HW,2013-01-01 05:01:00,
2013-01-01 00:02:00,32.0,22.7,29.83,SW,225,5.8,10.3,68,0.00,,,0.00,WUHU216HW,2013-01-01 05:02:00,
2013-01-01 00:07:00,32.0,23.0,29.82,WSW,248,6.9,8.9,69,0.00,,,0.00,WUHU216HW,2013-01-01 05:07:00,
2013-01-01 00:12:00,32.0,23.0,29.82,West,270,5.1,7.6,69,0.00,,,0.00,WUHU216HW,2013-01-01 05:12:00,
2013-01-01 00:17:00,32.0,23.0,29.82,SW,225,6.3,8.5,69,0.00,,,0.00,WUHU216HW,2013-01-01 05:17:00,
2013-01-01 00:22:00,32.2,23.6,29.81,WSW,248,4.5,11.4,70,0.00,,,0.00,WUHU216HW,2013-01-01 05:22:00,
2013-01-01 00:27:00,32.2,23.6,29.82,WSW,248,5.1,11.4,70,0.00,,,0.00,WUHU216HW,2013-01-01 05:27:00,
2013-01-01 00:32:00,32.2,23.2,29.82,WSW,248,6.9,7.4,69,0.00,,,0.00,WUHU216HW,2013-01-01 05:32:00,
2013-01-01 00:37:00,32.2,23.6,29.82,West,270,4.0,12.5,70,0.00,,,0.00,WUHU216HW,2013-01-01 05:37:00,
2013-01-01 00:42:00,32.2,23.6,29.82,SW,225,5.8,12.5,70,0.00,,,0.00,WUHU216HW,2013-01-01 05:42:00,
2013-01-01 00:47:00,32.2,23.6,29.82,SW,225,6.3,7.6,70,0.00,,,0.00,WUHU216HW,2013-01-01 05:47:00,
2013-01-01 00:52:00,32.2,23.6,29.82,SSW,203,2.9,6.9,70,0.00,,,0.00,WUHU216HW,2013-01-01 05:52:00,
2013-01-01 00:58:00,32.2,23.6,29.82,SW,225,8.3,8.3,70,0.00,,,0.00,WUHU216HW,2013-01-01 05:58:00,
2013-01-01 01:03:00,32.2,23.6,29.82,WSW,248,6.3,8.5,70,0.00,,,0.00,WUHU216HW,2013-01-01 06:03:00,
2013-01-01 01:08:00,32.2,23.6,29.82,South,180,4.9,8.5,70,0.00,,,0.00,WUHU216HW,2013-01-01 06:08:00,
2013-01-01 01:13:00,32.2,23.6,29.82,SW,225,5.6,7.2,70,0.00,,,0.00,WUHU216HW,2013-01-01 06:13:00,
2013-01-01 01:18:00,32.2,23.9,29.82,SW,225,3.6,9.4,71,0.00,,,0.00,WUHU216HW,2013-01-01 06:18:00,
2013-01-01 01:23:00,32.2,23.9,29.82,SSW,203,3.8,9.4,71,0.00,,,0.00,WUHU216HW,2013-01-01 06:23:00,
2013-01-01 01:28:00,32.2,23.9,29.82,SW,225,3.8,9.4,71,0.00,,,0.00,WUHU216HW,2013-01-01 06:28:00,
2013-01-01 01:33:00,32.2,23.9,29.82,WSW,248,3.4,8.9,71,0.00,,,0.00,WUHU216HW,2013-01-01 06:33:00,
2013-01-01 01:38:00,32.2,24.2,29.82,NW,315,2.5,9.2,72,0.00,,,0.00,WUHU216HW,2013-01-01 06:38:00,
2013-01-01 01:43:00,32.2,24.2,29.82,SSW,203,6.0,9.2,72,0.00,,,0.00,WUHU216HW,2013-01-01 06:43:00,
2013-01-01 01:48:00,32.2,24.2,29.81,WSW,248,4.9,8.9,72,0.00,,,0.00,WUHU216HW,2013-01-01 06:48:00,
2013-01-01 01:53:00,32.2,24.2,29.81,South,180,2.5,8.3,72,0.00,,,0.00,WUHU216HW,2013-01-01 06:53:00,
2013-01-01 01:58:00,32.2,24.6,29.81,SW,225,5.6,8.1,73,0.00,,,0.00,WUHU216HW,2013-01-01 06:58:00,
2013-01-01 02:03:00,32.2,24.6,29.81,SSW,203,4.0,8.1,73,0.00,,,0.00,WUHU216HW,2013-01-01 07:03:00,
2013-01-01 02:08:00,32.2,24.6,29.81,NNW,338,3.4,6.9,73,0.00,,,0.00,WUHU216HW,2013-01-01 07:08:00,
2013-01-01 02:13:00,32.2,24.6,29.81,SSE,158,3.6,6.9,73,0.00,,,0.00,WUHU216HW,2013-01-01 07:13:00,
2013-01-01 02:19:00,32.0,24.4,29.81,SW,225,2.9,9.2,73,0.00,,,0.00,WUHU216HW,2013-01-01 07:19:00,
2013-01-01 02:24:00,32.0,24.4,29.81,NNW,338,4.3,9.2,73,0.00,,,0.00,WUHU216HW,2013-01-01 07:24:00,
2013-01-01 02:29:00,32.0,24.4,29.82,SSW,203,5.8,5.8,73,0.00,,,0.00,WUHU216HW,2013-01-01 07:29:00,
2013-01-01 02:34:00,32.0,24.4,29.81,South,180,3.6,6.5,73,0.00,,,0.00,WUHU216HW,2013-01-01 07:34:00,
2013-01-01 02:39:00,32.2,24.6,29.82,SW,225,2.5,7.6,73,0.00,,,0.00,WUHU216HW,2013-01-01 07:39:00,
2013-01-01 02:44:00,32.2,24.6,29.82,SSW,203,4.3,8.3,73,0.00,,,0.00,WUHU216HW,2013-01-01 07:44:00,
2013-01-01 02:49:00,32.2,24.9,29.82,SW,225,1.1,8.3,74,0.00,,,0.00,WUHU216HW,2013-01-01 07:49:00,
2013-01-01 02:54:00,32.2,24.9,29.83,WSW,248,3.8,8.3,74,0.00,,,0.00,WUHU216HW,2013-01-01 07:54:00,
2013-01-01 02:59:00,32.2,24.9,29.83,South,180,4.0,8.3,74,0.00,,,0.00,WUHU216HW,2013-01-01 07:59:00,
2013-01-01 03:05:00,32.2,24.9,29.84,SSW,203,5.4,7.6,74,0.00,,,0.00,WUHU216HW,2013-01-01 08:05:00,
2013-01-01 03:10:00,32.2,24.9,29.84,ESE,113,5.4,7.6,74,0.00,,,0.00,WUHU216HW,2013-01-01 08:10:00,
2013-01-01 03:15:00,32.2,24.9,29.83,SW,225,6.7,6.9,74,0.00,,,0.00,WUHU216HW,2013-01-01 08:15:00,
2013-01-01 03:20:00,32.2,24.9,29.83,WSW,248,4.7,10.1,74,0.00,,,0.00,WUHU216HW,2013-01-01 08:20:00,
2013-01-01 03:25:00,32.2,24.9,29.82,SW,225,5.4,10.1,74,0.00,,,0.00,WUHU216HW,2013-01-01 08:25:00,
2013-01-01 03:30:00,32.2,24.9,29.82,WNW,293,3.4,8.3,74,0.00,,,0.00,WUHU216HW,2013-01-01 08:30:00,
2013-01-01 03:35:00,32.0,24.7,29.83,SSW,203,6.3,7.8,74,0.00,,,0.00,WUHU216HW,2013-01-01 08:35:00,
2013-01-01 03:40:00,32.2,25.2,29.83,SE,135,4.9,7.6,75,0.00,,,0.00,WUHU216HW,2013-01-01 08:40:00,
2013-01-01 03:46:00,32.2,25.2,29.83,WSW,248,4.5,7.6,75,0.00,,,0.00,WUHU216HW,2013-01-01 08:46:00,
2013-01-01 03:51:00,32.2,25.2,29.83,SW,225,8.3,8.7,75,0.00,,,0.00,WUHU216HW,2013-01-01 08:51:00,
2013-01-01 03:56:00,32.2,25.2,29.83,SW,225,1.3,8.7,75,0.00,,,0.00,WUHU216HW,2013-01-01 08:56:00,
2013-01-01 04:01:00,32.2,25.2,29.83,SSW,203,5.4,8.1,75,0.00,,,0.00,WUHU216HW,2013-01-01 09:01:00,
2013-01-01 04:06:00,32.2,25.2,29.83,West,270,3.4,6.9,75,0.00,,,0.00,WUHU216HW,2013-01-01 09:06:00,
2013-01-01 04:11:00,32.2,25.2,29.83,NW,315,8.3,8.3,75,0.00,,,0.00,WUHU216HW,2013-01-01 09:11:00,
2013-01-01 04:16:00,32.2,25.2,29.83,SW,225,5.4,8.7,75,0.00,,,0.00,WUHU216HW,2013-01-01 09:16:00,
2013-01-01 04:21:00,32.2,25.2,29.83,WSW,248,8.1,8.7,75,0.00,,,0.00,WUHU216HW,2013-01-01 09:21:00,
2013-01-01 04:26:00,32.2,24.9,29.82,West,270,8.5,10.3,74,0.00,,,0.00,WUHU216HW,2013-01-01 09:26:00,
2013-01-01 04:32:00,32.2,24.9,29.82,SW,225,7.2,10.3,74,0.00,,,0.00,WUHU216HW,2013-01-01 09:32:00,
2013-01-01 04:37:00,32.2,24.9,29.82,SSW,203,4.9,9.2,74,0.00,,,0.00,WUHU216HW,2013-01-01 09:37:00,
2013-01-01 04:42:00,32.2,24.9,29.81,WSW,248,4.9,8.9,74,0.00,,,0.00,WUHU216HW,2013-01-01 09:42:00,
2013-01-01 04:47:00,32.2,24.9,29.81,WSW,248,4.0,7.6,74,0.00,,,0.00,WUHU216HW,2013-01-01 09:47:00,
2013-01-01 04:52:00,32.2,24.6,29.81,SW,225,7.6,7.8,73,0.00,,,0.00,WUHU216HW,2013-01-01 09:52:00,
2013-01-01 04:57:00,32.2,24.6,29.81,West,270,2.5,7.8,73,0.00,,,0.00,WUHU216HW,2013-01-01 09:57:00,
2013-01-01 05:02:00,32.2,24.6,29.81,WSW,248,2.7,7.6,73,0.00,,,0.00,WUHU216HW,2013-01-01 10:02:00,
2013-01-01 05:07:00,32.2,24.6,29.81,SSW,203,2.5,6.0,73,0.00,,,0.00,WUHU216HW,2013-01-01 10:07:00,
2013-01-01 05:12:00,32.2,24.6,29.81,SSW,203,2.0,5.1,73,0.00,,,0.00,WUHU216HW,2013-01-01 10:12:00,
2013-01-01 05:17:00,32.2,24.6,29.81,SW,225,6.9,6.9,73,0.00,,,0.00,WUHU216HW,2013-01-01 10:17:00,
2013-01-01 05:22:00,32.2,24.6,29.80,WSW,248,2.2,6.9,73,0.00,,,0.00,WUHU216HW,2013-01-01 10:22:00,
2013-01-01 05:28:00,32.2,24.6,29.81,NNW,338,3.4,6.9,73,0.00,,,0.00,WUHU216HW,2013-01-01 10:28:00,
2013-01-01 05:33:00,32.2,24.6,29.81,South,180,4.0,6.5,73,0.00,,,0.00,WUHU216HW,2013-01-01 10:33:00,
2013-01-01 05:38:00,32.2,24.6,29.81,South,180,2.5,6.9,73,0.00,,,0.00,WUHU216HW,2013-01-01 10:38:00,
2013-01-01 05:43:00,32.2,24.6,29.81,SW,225,7.6,7.6,73,0.00,,,0.00,WUHU216HW,2013-01-01 10:43:00,
2013-01-01 05:48:00,32.2,24.6,29.82,SW,225,2.2,7.6,73,0.00,,,0.00,WUHU216HW,2013-01-01 10:48:00,
2013-01-01 05:53:00,32.2,24.6,29.82,SSW,203,2.5,7.6,73,0.00,,,0.00,WUHU216HW,2013-01-01 10:53:00,
2013-01-01 05:58:00,32.2,24.6,29.81,NW,315,4.7,9.2,73,0.00,,,0.00,WUHU216HW,2013-01-01 10:58:00,
2013-01-01 06:03:00,32.2,24.2,29.81,West,270,5.1,11.4,72,0.00,,,0.00,WUHU216HW,2013-01-01 11:03:00,
2013-01-01 06:08:00,32.2,24.2,29.81,SW,225,4.9,11.4,72,0.00,,,0.00,WUHU216HW,2013-01-01 11:08:00,
2013-01-01 06:13:00,32.2,24.2,29.82,SSE,158,8.5,8.7,72,0.00,,,0.00,WUHU216HW,2013-01-01 11:13:00,
2013-01-01 06:18:00,32.4,24.8,29.82,WSW,248,4.7,10.7,73,0.00,,,0.00,WUHU216HW,2013-01-01 11:18:00,
2013-01-01 06:23:00,32.4,24.8,29.82,SW,225,4.0,10.7,73,0.00,,,0.00,WUHU216HW,2013-01-01 11:23:00,
2013-01-01 06:28:00,32.2,24.2,29.82,SW,225,8.3,8.3,72,0.00,,,0.00,WUHU216HW,2013-01-01 11:28:00,
2013-01-01 06:34:00,32.2,24.2,29.82,SW,225,4.7,8.3,72,0.00,,,0.00,WUHU216HW,2013-01-01 11:34:00,
2013-01-01 06:39:00,32.2,24.2,29.82,WSW,248,4.7,8.3,72,0.00,,,0.00,WUHU216HW,2013-01-01 11:39:00,
2013-01-01 06:44:00,32.2,24.2,29.82,West,270,6.0,8.9,72,0.00,,,0.00,WUHU216HW,2013-01-01 11:44:00,
2013-01-01 06:49:00,32.2,24.2,29.82,SW,225,6.0,8.9,72,0.00,,,0.00,WUHU216HW,2013-01-01 11:49:00,
2013-01-01 06:54:00,32.2,24.2,29.83,West,270,3.4,9.6,72,0.00,,,0.00,WUHU216HW,2013-01-01 11:54:00,
2013-01-01 06:59:00,32.2,24.2,29.82,SW,225,1.3,9.6,72,0.00,,,0.00,WUHU216HW,2013-01-01 11:59:00,
2013-01-01 07:04:00,32.2,24.2,29.83,SSE,158,3.4,7.6,72,0.00,,,0.00,WUHU216HW,2013-01-01 12:04:00,
2013-01-01 07:09:00,32.2,24.2,29.82,SSW,203,7.6,7.6,72,0.00,,,0.00,WUHU216HW,2013-01-01 12:09:00,
2013-01-01 07:14:00,32.2,24.6,29.82,NW,315,3.8,7.6,73,0.00,,,0.00,WUHU216HW,2013-01-01 12:14:00,
2013-01-01 07:19:00,32.2,24.6,29.82,WSW,248,2.7,7.6,73,0.00,,,0.00,WUHU216HW,2013-01-01 12:19:00,
2013-01-01 07:24:00,32.2,24.6,29.83,SW,225,5.1,7.4,73,0.00,,,0.00,WUHU216HW,2013-01-01 12:24:00,
2013-01-01 07:29:00,32.2,24.6,29.83,West,270,3.4,7.6,73,0.00,,,0.00,WUHU216HW,2013-01-01 12:29:00,
2013-01-01 07:34:00,32.2,24.6,29.84,SW,225,1.6,8.7,73,0.00,,,0.00,WUHU216HW,2013-01-01 12:34:00,
2013-01-01 07:39:00,32.2,24.6,29.83,SW,225,2.2,8.7,73,0.00,,,0.00,WUHU216HW,2013-01-01 12:39:00,
2013-01-01 07:44:00,32.2,24.6,29.83,SSW,203,5.4,6.9,73,0.00,,,0.00,WUHU216HW,2013-01-01 12:44:00,
2013-01-01 07:49:00,32.0,24.4,29.84,West,270,3.6,6.3,73,0.00,,,0.00,WUHU216HW,2013-01-01 12:49:00,
2013-01-01 07:54:00,32.0,24.7,29.83,West,270,1.8,6.3,74,0.00,,,0.00,WUHU216HW,2013-01-01 12:54:00,
2013-01-01 07:59:00,32.0,24.7,29.84,WSW,248,4.0,6.0,74,0.00,,,0.00,WUHU216HW,2013-01-01 12:59:00,
2013-01-01 08:04:00,32.0,24.7,29.83,WSW,248,3.1,6.0,74,0.00,,,0.00,WUHU216HW,2013-01-01 13:04:00,
2013-01-01 08:09:00,32.0,24.7,29.83,WSW,248,4.0,6.0,74,0.00,,,0.00,WUHU216HW,2013-01-01 13:09:00,
2013-01-01 08:14:00,32.0,25.0,29.83,South,180,6.0,6.9,75,0.00,,,0.00,WUHU216HW,2013-01-01 13:14:00,
2013-01-01 08:19:00,32.0,25.0,29.83,South,180,5.8,6.9,75,0.00,,,0.00,WUHU216HW,2013-01-01 13:19:00,
2013-01-01 08:24:00,32.0,25.0,29.83,WNW,293,5.6,7.6,75,0.00,,,0.00,WUHU216HW,2013-01-01 13:24:00,
2013-01-01 08:29:00,32.0,25.0,29.83,SSW,203,6.3,9.8,75,0.00,,,0.00,WUHU216HW,2013-01-01 13:29:00,
2013-01-01 08:35:00,32.0,25.0,29.82,ESE,113,5.4,9.8,75,0.00,,,0.00,WUHU216HW,2013-01-01 13:35:00,
2013-01-01 08:40:00,32.0,25.0,29.82,SSW,203,3.4,8.5,75,0.00,,,0.00,WUHU216HW,2013-01-01 13:40:00,
2013-01-01 08:45:00,32.0,25.0,29.83,West,270,3.4,8.5,75,0.00,,,0.00,WUHU216HW,2013-01-01 13:45:00,
2013-01-01 08:50:00,32.0,25.0,29.83,South,180,4.9,7.6,75,0.00,,,0.00,WUHU216HW,2013-01-01 13:50:00,
2013-01-01 08:55:00,32.2,25.2,29.83,WNW,293,2.9,7.8,75,0.00,,,0.00,WUHU216HW,2013-01-01 13:55:00,
2013-01-01 09:00:00,32.2,25.2,29.84,SW,225,1.8,7.8,75,0.00,,,0.00,WUHU216HW,2013-01-01 14:00:00,
2013-01-01 09:05:00,32.2,25.2,29.84,WSW,248,6.9,8.1,75,0.00,,,0.00,WUHU216HW,2013-01-01 14:05:00,
2013-01-01 09:10:00,32.2,25.2,29.84,South,180,5.1,8.1,75,0.00,,,0.00,WUHU216HW,2013-01-01 14:10:00,
2013-01-01 09:15:00,32.2,25.2,29.84,WSW,248,2.9,8.7,75,0.00,,,0.00,WUHU216HW,2013-01-01 14:15:00,
2013-01-01 09:20:00,32.2,25.2,29.84,SW,225,8.5,8.7,75,0.00,,,0.00,WUHU216HW,2013-01-01 14:20:00,
2013-01-01 09:26:00,32.2,25.2,29.84,WSW,248,4.9,8.5,75,0.00,,,0.00,WUHU216HW,2013-01-01 14:26:00,
2013-01-01 09:31:00,32.2,25.2,29.83,West,270,8.9,8.9,75,0.00,,,0.00,WUHU216HW,2013-01-01 14:31:00,
2013-01-01 09:36:00,32.2,25.2,29.83,WSW,248,6.3,9.6,75,0.00,,,0.00,WUHU216HW,2013-01-01 14:36:00,
2013-01-01 09:41:00,32.2,25.2,29.84,SW,225,5.8,9.6,75,0.00,,,0.00,WUHU216HW,2013-01-01 14:41:00,
2013-01-01 09:46:00,32.2,25.2,29.84,SW,225,4.7,10.1,75,0.00,,,0.00,WUHU216HW,2013-01-01 14:46:00,
2013-01-01 09:51:00,32.2,25.2,29.84,SSW,203,3.6,10.1,75,0.00,,,0.00,WUHU216HW,2013-01-01 14:51:00,
2013-01-01 09:56:00,32.2,25.2,29.84,SSW,203,4.7,6.7,75,0.00,,,0.00,WUHU216HW,2013-01-01 14:56:00,
2013-01-01 10:01:00,32.4,25.4,29.84,SSW,203,7.6,7.6,75,0.00,,,0.00,WUHU216HW,2013-01-01 15:01:00,
2013-01-01 10:06:00,32.2,25.2,29.84,West,270,9.2,11.2,75,0.00,,,0.00,WUHU216HW,2013-01-01 15:06:00,
2013-01-01 10:12:00,32.4,25.4,29.84,WSW,248,6.0,11.2,75,0.00,,,0.00,WUHU216HW,2013-01-01 15:12:00,
2013-01-01 10:17:00,32.2,25.2,29.84,WNW,293,4.7,10.7,75,0.00,,,0.00,WUHU216HW,2013-01-01 15:17:00,
2013-01-01 10:22:00,32.4,25.1,29.84,SSW,203,6.3,13.9,74,0.00,,,0.00,WUHU216HW,2013-01-01 15:22:00,
2013-01-01 10:27:00,32.4,25.4,29.83,NNW,338,7.6,13.9,75,0.00,,,0.00,WUHU216HW,2013-01-01 15:27:00,
2013-01-01 10:32:00,32.4,25.4,29.83,NW,315,7.2,10.7,75,0.00,,,0.00,WUHU216HW,2013-01-01 15:32:00,
2013-01-01 10:37:00,32.6,25.3,29.83,WSW,248,3.6,8.9,74,0.00,,,0.00,WUHU216HW,2013-01-01 15:37:00,
2013-01-01 10:42:00,32.6,25.3,29.84,WSW,248,1.8,12.3,74,0.00,,,0.00,WUHU216HW,2013-01-01 15:42:00,
2013-01-01 10:47:00,32.6,25.3,29.84,WSW,248,2.7,12.3,74,0.00,,,0.00,WUHU216HW,2013-01-01 15:47:00,
2013-01-01 10:52:00,32.6,25.3,29.83,SW,225,6.7,9.8,74,0.00,,,0.00,WUHU216HW,2013-01-01 15:52:00,
2013-01-01 10:57:00,32.6,25.3,29.84,WSW,248,8.5,10.5,74,0.00,,,0.00,WUHU216HW,2013-01-01 15:57:00,
2013-01-01 11:02:00,32.6,25.3,29.83,WSW,248,6.0,10.5,74,0.00,,,0.00,WUHU216HW,2013-01-01 16:02:00,
2013-01-01 11:08:00,32.6,25.3,29.83,West,270,3.6,10.3,74,0.00,,,0.00,WUHU216HW,2013-01-01 16:08:00,
2013-01-01 11:13:00,32.6,25.3,29.83,SW,225,4.0,10.3,74,0.00,,,0.00,WUHU216HW,2013-01-01 16:13:00,
2013-01-01 11:18:00,32.6,25.3,29.82,West,270,3.4,8.9,74,0.00,,,0.00,WUHU216HW,2013-01-01 16:18:00,
2013-01-01 11:23:00,32.4,25.1,29.82,WNW,293,3.4,8.7,74,0.00,,,0.00,WUHU216HW,2013-01-01 16:23:00,
2013-01-01 11:28:00,32.4,25.1,29.82,WSW,248,2.9,12.3,74,0.00,,,0.00,WUHU216HW,2013-01-01 16:28:00,
2013-01-01 11:33:00,32.4,25.1,29.81,West,270,4.0,12.3,74,0.00,,,0.00,WUHU216HW,2013-01-01 16:33:00,
2013-01-01 11:38:00,32.4,25.1,29.81,West,270,3.6,7.2,74,0.00,,,0.00,WUHU216HW,2013-01-01 16:38:00,
2013-01-01 11:43:00,32.2,25.2,29.81,SW,225,2.7,7.2,75,0.00,,,0.00,WUHU216HW,2013-01-01 16:43:00,
2013-01-01 11:48:00,32.2,25.2,29.81,West,270,3.4,6.7,75,0.00,,,0.00,WUHU216HW,2013-01-01 16:48:00,
2013-01-01 11:53:00,32.2,25.2,29.82,WNW,293,5.6,7.4,75,0.00,,,0.00,WUHU216HW,2013-01-01 16:53:00,
2013-01-01 11:59:00,32.0,25.0,29.82,WSW,248,5.4,7.4,75,0.00,,,0.00,WUHU216HW,2013-01-01 16:59:00,
2013-01-01 12:04:00,31.7,24.7,29.81,WSW,248,3.8,6.7,75,0.00,,,0.00,WUHU216HW,2013-01-01 17:04:00,
2013-01-01 12:09:00,31.5,24.5,29.81,West,270,7.6,7.6,75,0.00,,,0.00,WUHU216HW,2013-01-01 17:09:00,
2013-01-01 12:14:00,31.3,24.3,29.82,NW,315,4.0,7.6,75,0.00,,,0.00,WUHU216HW,2013-01-01 17:14:00,
2013-01-01 12:19:00,31.1,24.1,29.81,WNW,293,2.7,7.6,75,0.00,,,0.00,WUHU216HW,2013-01-01 17:19:00,
2013-01-01 12:24:00,31.1,23.8,29.81,WNW,293,2.7,9.6,74,0.00,,,0.00,WUHU216HW,2013-01-01 17:24:00,
2013-01-01 12:29:00,30.9,23.6,29.81,West,270,6.3,9.6,74,0.00,,,0.00,WUHU216HW,2013-01-01 17:29:00,
2013-01-01 12:34:00,30.9,23.6,29.81,WNW,293,4.0,8.1,74,0.00,,,0.00,WUHU216HW,2013-01-01 17:34:00,
2013-01-01 12:39:00,30.8,23.5,29.81,WSW,248,4.0,8.1,74,0.00,,,0.00,WUHU216HW,2013-01-01 17:39:00,
2013-01-01 12:44:00,30.8,23.5,29.81,WSW,248,7.6,9.4,74,0.00,,,0.00,WUHU216HW,2013-01-01 17:44:00,
2013-01-01 12:49:00,30.8,23.5,29.81,West,270,6.9,9.4,74,0.00,,,0.00,WUHU216HW,2013-01-01 17:49:00,
2013-01-01 12:54:00,30.8,23.2,29.81,WNW,293,5.4,9.2,73,0.00,,,0.00,WUHU216HW,2013-01-01 17:54:00,
2013-01-01 12:59:00,30.8,22.9,29.81,SW,225,5.1,9.4,72,0.00,,,0.00,WUHU216HW,2013-01-01 17:59:00,
2013-01-01 13:04:00,30.8,22.9,29.80,WSW,248,2.7,9.4,72,0.00,,,0.00,WUHU216HW,2013-01-01 18:04:00,
2013-01-01 13:09:00,30.8,22.9,29.80,NW,315,3.1,7.6,72,0.00,,,0.00,WUHU216HW,2013-01-01 18:09:00,
2013-01-01 13:14:00,30.8,22.6,29.79,WNW,293,3.6,6.9,71,0.00,,,0.00,WUHU216HW,2013-01-01 18:14:00,
2013-01-01 13:19:00,30.8,22.6,29.80,West,270,8.9,8.9,71,0.00,,,0.00,WUHU216HW,2013-01-01 18:19:00,
2013-01-01 13:24:00,30.8,22.2,29.80,West,270,6.3,9.2,70,0.00,,,0.00,WUHU216HW,2013-01-01 18:24:00,
2013-01-01 13:29:00,30.8,22.2,29.79,West,270,4.5,11.9,70,0.00,,,0.00,WUHU216HW,2013-01-01 18:29:00,
2013-01-01 13:35:00,30.8,22.2,29.80,SW,225,7.4,11.9,70,0.00,,,0.00,WUHU216HW,2013-01-01 18:35:00,
2013-01-01 13:40:00,30.8,22.2,29.79,WSW,248,4.7,9.6,70,0.00,,,0.00,WUHU216HW,2013-01-01 18:40:00,
2013-01-01 13:45:00,30.8,22.2,29.79,West,270,4.0,9.2,70,0.00,,,0.00,WUHU216HW,2013-01-01 18:45:00,
2013-01-01 13:50:00,30.8,22.2,29.78,West,270,7.8,8.1,70,0.00,,,0.00,WUHU216HW,2013-01-01 18:50:00,
2013-01-01 13:55:00,30.8,22.2,29.78,WSW,248,2.5,8.5,70,0.00,,,0.00,WUHU216HW,2013-01-01 18:55:00,
2013-01-01 14:00:00,30.8,22.2,29.79,SW,225,4.0,8.5,70,0.00,,,0.00,WUHU216HW,2013-01-01 19:00:00,
2013-01-01 14:05:00,30.9,22.3,29.78,West,270,4.7,6.9,70,0.00,,,0.00,WUHU216HW,2013-01-01 19:05:00,
2013-01-01 14:10:00,30.9,22.3,29.78,WSW,248,1.1,6.9,70,0.00,,,0.00,WUHU216HW,2013-01-01 19:10:00,
2013-01-01 14:15:00,31.1,22.2,29.78,WNW,293,4.5,6.9,69,0.00,,,0.00,WUHU216HW,2013-01-01 19:15:00,
2013-01-01 14:20:00,31.1,22.5,29.79,WNW,293,4.3,8.3,70,0.00,,,0.00,WUHU216HW,2013-01-01 19:20:00,
2013-01-01 14:25:00,31.1,22.5,29.79,West,270,4.0,8.3,70,0.00,,,0.00,WUHU216HW,2013-01-01 19:25:00,
2013-01-01 14:30:00,31.3,22.4,29.79,West,270,4.9,6.3,69,0.00,,,0.00,WUHU216HW,2013-01-01 19:30:00,
2013-01-01 14:35:00,31.3,22.4,29.79,WNW,293,5.6,6.9,69,0.00,,,0.00,WUHU216HW,2013-01-01 19:35:00,
2013-01-01 14:40:00,31.5,22.6,29.79,WNW,293,2.9,6.9,69,0.00,,,0.00,WUHU216HW,2013-01-01 19:40:00,
2013-01-01 14:45:00,31.5,22.6,29.79,West,270,1.8,5.6,69,0.00,,,0.00,WUHU216HW,2013-01-01 19:45:00,
2013-01-01 14:50:00,31.5,22.6,29.79,West,270,1.6,5.4,69,0.00,,,0.00,WUHU216HW,2013-01-01 19:50:00,
2013-01-01 14:55:00,31.5,22.2,29.80,West,270,2.5,5.1,68,0.00,,,0.00,WUHU216HW,2013-01-01 19:55:00,
2013-01-01 15:00:00,31.7,22.4,29.79,WNW,293,1.8,5.1,68,0.00,,,0.00,WUHU216HW,2013-01-01 20:00:00,
2013-01-01 15:05:00,31.7,22.4,29.79,West,270,4.0,6.9,68,0.01,,,0.01,WUHU216HW,2013-01-01 20:05:00,
2013-01-01 15:10:00,31.8,22.5,29.79,West,270,3.1,6.9,68,0.01,,,0.01,WUHU216HW,2013-01-01 20:10:00,
2013-01-01 15:15:00,31.7,22.1,29.79,WSW,248,14.3,14.3,67,0.01,,,0.01,WUHU216HW,2013-01-01 20:15:00,
2013-01-01 15:20:00,31.5,21.5,29.79,West,270,5.1,14.3,66,0.01,,,0.01,WUHU216HW,2013-01-01 20:20:00,
2013-01-01 15:26:00,31.5,21.5,29.80,SW,225,5.1,14.3,66,0.01,,,0.01,WUHU216HW,2013-01-01 20:26:00,
2013-01-01 15:31:00,31.3,21.0,29.80,NW,315,3.4,8.7,65,0.01,,,0.01,WUHU216HW,2013-01-01 20:31:00,
2013-01-01 15:36:00,31.1,21.1,29.81,WNW,293,2.9,6.9,66,0.01,,,0.01,WUHU216HW,2013-01-01 20:36:00,
2013-01-01 15:41:00,31.1,21.1,29.82,West,270,2.9,4.5,66,0.01,,,0.01,WUHU216HW,2013-01-01 20:41:00,
2013-01-01 15:46:00,30.9,20.9,29.82,West,270,4.9,6.7,66,0.01,,,0.01,WUHU216HW,2013-01-01 20:46:00,
2013-01-01 15:51:00,30.8,20.8,29.82,WNW,293,2.0,6.7,66,0.01,,,0.01,WUHU216HW,2013-01-01 20:51:00,
2013-01-01 15:56:00,30.8,20.8,29.83,West,270,6.0,7.4,66,0.01,,,0.01,WUHU216HW,2013-01-01 20:56:00,
2013-01-01 16:01:00,30.6,20.3,29.83,NNW,338,3.1,7.4,65,0.00,,,0.01,WUHU216HW,2013-01-01 21:01:00,
2013-01-01 16:06:00,30.4,20.1,29.83,WNW,293,5.4,7.6,65,0.00,,,0.01,WUHU216HW,2013-01-01 21:06:00,
2013-01-01 16:11:00,30.2,19.9,29.83,West,270,4.5,7.6,65,0.00,,,0.01,WUHU216HW,2013-01-01 21:11:00,
2013-01-01 16:16:00,30.0,19.7,29.84,West,270,5.1,6.5,65,0.00,,,0.01,WUHU216HW,2013-01-01 21:16:00,
2013-01-01 16:21:00,29.7,19.4,29.83,West,270,2.5,5.6,65,0.00,,,0.01,WUHU216HW,2013-01-01 21:21:00,
2013-01-01 16:26:00,29.5,19.2,29.83,West,270,2.7,6.9,65,0.00,,,0.01,WUHU216HW,2013-01-01 21:26:00,
2013-01-01 16:32:00,29.3,19.1,29.83,West,270,4.0,6.9,65,0.00,,,0.01,WUHU216HW,2013-01-01 21:32:00,
2013-01-01 16:37:00,29.1,18.9,29.83,West,270,1.8,6.7,65,0.00,,,0.01,WUHU216HW,2013-01-01 21:37:00,
2013-01-01 16:42:00,29.0,18.8,29.82,NNW,338,1.1,6.7,65,0.00,,,0.01,WUHU216HW,2013-01-01 21:42:00,
2013-01-01 16:47:00,28.8,18.6,29.83,SSE,158,4.0,6.0,65,0.00,,,0.01,WUHU216HW,2013-01-01 21:47:00,
2013-01-01 16:52:00,28.6,18.4,29.84,West,270,0.7,5.1,65,0.00,,,0.01,WUHU216HW,2013-01-01 21:52:00,
2013-01-01 16:57:00,28.4,18.2,29.84,WNW,293,2.5,5.1,65,0.00,,,0.01,WUHU216HW,2013-01-01 21:57:00,
2013-01-01 17:02:00,28.2,18.0,29.85,WSW,248,2.5,5.6,65,0.00,,,0.01,WUHU216HW,2013-01-01 22:02:00,
2013-01-01 17:07:00,28.1,17.9,29.86,West,270,3.8,6.9,65,0.00,,,0.01,WUHU216HW,2013-01-01 22:07:00,
2013-01-01 17:12:00,27.9,17.4,29.85,WNW,293,4.5,6.9,64,0.00,,,0.01,WUHU216HW,2013-01-01 22:12:00,
2013-01-01 17:17:00,27.7,17.2,29.85,West,270,3.6,8.3,64,0.00,,,0.01,WUHU216HW,2013-01-01 22:17:00,
2013-01-01 17:22:00,27.5,17.0,29.85,West,270,3.4,8.3,64,0.00,,,0.01,WUHU216HW,2013-01-01 22:22:00,
2013-01-01 17:27:00,27.5,17.0,29.86,West,270,4.0,5.6,64,0.00,,,0.01,WUHU216HW,2013-01-01 22:27:00,
2013-01-01 17:32:00,27.3,16.8,29.86,West,270,4.3,4.9,64,0.00,,,0.01,WUHU216HW,2013-01-01 22:32:00,
2013-01-01 17:37:00,27.3,16.4,29.86,WNW,293,2.7,6.0,63,0.00,,,0.01,WUHU216HW,2013-01-01 22:37:00,
2013-01-01 17:42:00,27.2,15.9,29.86,WNW,293,6.7,7.2,62,0.00,,,0.01,WUHU216HW,2013-01-01 22:42:00,
2013-01-01 17:47:00,27.2,15.9,29.85,WNW,293,6.9,8.5,62,0.00,,,0.01,WUHU216HW,2013-01-01 22:47:00,
2013-01-01 17:53:00,27.2,15.9,29.85,WSW,248,3.8,8.5,62,0.00,,,0.01,WUHU216HW,2013-01-01 22:53:00,
2013-01-01 17:58:00,27.0,15.8,29.85,West,270,1.8,5.4,62,0.00,,,0.01,WUHU216HW,2013-01-01 22:58:00,
2013-01-01 18:03:00,27.0,15.8,29.86,SW,225,2.5,5.1,62,0.00,,,0.01,WUHU216HW,2013-01-01 23:03:00,
2013-01-01 18:08:00,26.8,15.6,29.85,West,270,1.6,4.9,62,0.00,,,0.01,WUHU216HW,2013-01-01 23:08:00,
2013-01-01 18:13:00,26.8,15.6,29.86,West,270,2.5,6.9,62,0.00,,,0.01,WUHU216HW,2013-01-01 23:13:00,
2013-01-01 18:18:00,26.6,15.4,29.87,NE,45,3.6,6.9,62,0.00,,,0.01,WUHU216HW,2013-01-01 23:18:00,
2013-01-01 18:23:00,26.4,15.2,29.87,NNW,338,6.0,6.0,62,0.00,,,0.01,WUHU216HW,2013-01-01 23:23:00,
2013-01-01 18:28:00,26.4,15.2,29.88,WNW,293,3.1,6.0,62,0.00,,,0.01,WUHU216HW,2013-01-01 23:28:00,
2013-01-01 18:33:00,26.4,15.2,29.88,West,270,2.7,9.2,62,0.00,,,0.01,WUHU216HW,2013-01-01 23:33:00,
2013-01-01 18:38:00,26.3,15.1,29.88,WNW,293,7.8,9.2,62,0.00,,,0.01,WUHU216HW,2013-01-01 23:38:00,
2013-01-01 18:43:00,26.1,14.9,29.88,WNW,293,4.5,7.8,62,0.00,,,0.01,WUHU216HW,2013-01-01 23:43:00,
2013-01-01 18:48:00,26.1,14.9,29.88,West,270,4.7,7.8,62,0.00,,,0.01,WUHU216HW,2013-01-01 23:48:00,
2013-01-01 18:53:00,26.1,14.9,29.88,West,270,3.8,8.1,62,0.00,,,0.01,WUHU216HW,2013-01-01 23:53:00,
2013-01-01 18:58:00,25.9,14.7,29.88,West,270,3.6,8.1,62,0.00,,,0.01,WUHU216HW,2013-01-01 23:58:00,
2013-01-01 19:03:00,25.9,14.7,29.88,WSW,248,1.6,5.4,62,0.00,,,0.01,WUHU216HW,2013-01-02 00:03:00,
2013-01-01 19:08:00,25.7,14.5,29.88,West,270,8.1,8.1,62,0.00,,,0.01,WUHU216HW,2013-01-02 00:08:00,
2013-01-01 19:13:00,25.7,14.5,29.89,West,270,4.7,8.1,62,0.00,,,0.01,WUHU216HW,2013-01-02 00:13:00,
2013-01-01 19:19:00,25.7,14.5,29.89,NW,315,3.8,8.1,62,0.00,,,0.01,WUHU216HW,2013-01-02 00:19:00,
2013-01-01 19:24:00,25.7,14.5,29.88,WNW,293,2.7,4.7,62,0.00,,,0.01,WUHU216HW,2013-01-02 00:24:00,
2013-01-01 19:29:00,25.5,14.3,29.89,West,270,3.1,4.5,62,0.00,,,0.01,WUHU216HW,2013-01-02 00:29:00,
2013-01-01 19:34:00,25.5,14.3,29.88,West,270,3.6,4.7,62,0.00,,,0.01,WUHU216HW,2013-01-02 00:34:00,
2013-01-01 19:39:00,25.5,14.3,29.88,West,270,1.1,4.7,62,0.00,,,0.01,WUHU216HW,2013-01-02 00:39:00,
2013-01-01 19:44:00,25.4,14.2,29.88,NNW,338,1.8,5.1,62,0.00,,,0.01,WUHU216HW,2013-01-02 00:44:00,
2013-01-01 19:49:00,25.4,14.2,29.88,WNW,293,2.9,5.1,62,0.00,,,0.01,WUHU216HW,2013-01-02 00:49:00,
2013-01-01 19:54:00,25.2,14.0,29.88,WNW,293,1.8,3.8,62,0.00,,,0.01,WUHU216HW,2013-01-02 00:54:00,
2013-01-01 19:59:00,25.0,14.2,29.89,NW,315,2.9,4.9,63,0.00,,,0.01,WUHU216HW,2013-01-02 00:59:00,
2013-01-01 20:04:00,25.0,14.2,29.89,WSW,248,1.1,4.9,63,0.00,,,0.01,WUHU216HW,2013-01-02 01:04:00,
2013-01-01 20:09:00,24.8,14.0,29.90,West,270,3.1,4.0,63,0.00,,,0.01,WUHU216HW,2013-01-02 01:09:00,
2013-01-01 20:14:00,24.6,14.2,29.90,West,270,2.0,3.4,64,0.00,,,0.01,WUHU216HW,2013-01-02 01:14:00,
2013-01-01 20:19:00,24.6,14.2,29.90,West,270,0.9,5.4,64,0.00,,,0.01,WUHU216HW,2013-01-02 01:19:00,
2013-01-01 20:25:00,24.5,14.1,29.90,WNW,293,5.1,5.4,64,0.00,,,0.01,WUHU216HW,2013-01-02 01:25:00,
2013-01-01 20:30:00,24.3,13.9,29.90,West,270,2.0,6.5,64,0.00,,,0.01,WUHU216HW,2013-01-02 01:30:00,
2013-01-01 20:35:00,24.3,13.9,29.90,NW,315,3.1,6.5,64,0.00,,,0.01,WUHU216HW,2013-01-02 01:35:00,
2013-01-01 20:40:00,24.1,13.7,29.90,NW,315,1.8,5.6,64,0.00,,,0.01,WUHU216HW,2013-01-02 01:40:00,
2013-01-01 20:45:00,23.9,13.5,29.91,NNW,338,5.4,5.6,64,0.00,,,0.01,WUHU216HW,2013-01-02 01:45:00,
2013-01-01 20:50:00,23.7,13.7,29.90,West,270,0.9,5.4,65,0.00,,,0.01,WUHU216HW,2013-01-02 01:50:00,
2013-01-01 20:55:00,23.6,13.6,29.90,West,270,1.6,5.4,65,0.00,,,0.01,WUHU216HW,2013-01-02 01:55:00,
2013-01-01 21:00:00,23.4,13.4,29.90,West,270,2.7,5.4,65,0.00,,,0.01,WUHU216HW,2013-01-02 02:00:00,
2013-01-01 21:05:00,23.2,12.9,29.91,WNW,293,1.3,5.4,64,0.00,,,0.01,WUHU216HW,2013-01-02 02:05:00,
2013-01-01 21:10:00,23.0,12.7,29.90,West,270,2.7,6.5,64,0.00,,,0.01,WUHU216HW,2013-01-02 02:10:00,
2013-01-01 21:15:00,22.8,12.5,29.91,NNW,338,1.1,6.5,64,0.00,,,0.01,WUHU216HW,2013-01-02 02:15:00,
2013-01-01 21:20:00,22.7,12.4,29.91,NNE,23,3.6,4.7,64,0.00,,,0.01,WUHU216HW,2013-01-02 02:20:00,
2013-01-01 21:25:00,22.7,12.4,29.92,West,270,0.9,4.0,64,0.00,,,0.01,WUHU216HW,2013-01-02 02:25:00,
2013-01-01 21:30:00,22.5,12.2,29.92,SW,225,1.1,4.0,64,0.00,,,0.01,WUHU216HW,2013-01-02 02:30:00,
2013-01-01 21:35:00,22.5,11.8,29.91,WNW,293,0.9,4.0,63,0.00,,,0.01,WUHU216HW,2013-01-02 02:35:00,
2013-01-01 21:40:00,22.3,12.0,29.92,WNW,293,2.7,4.9,64,0.00,,,0.01,WUHU216HW,2013-01-02 02:40:00,
2013-01-01 21:45:00,22.1,11.8,29.92,WSW,248,1.1,4.9,64,0.00,,,0.01,WUHU216HW,2013-01-02 02:45:00,
2013-01-01 21:50:00,22.1,11.8,29.92,West,270,3.4,3.4,64,0.00,,,0.01,WUHU216HW,2013-01-02 02:50:00,
2013-01-01 21:55:00,22.1,11.8,29.93,NW,315,1.1,3.4,64,0.00,,,0.01,WUHU216HW,2013-01-02 02:55:00,
2013-01-01 22:01:00,21.9,11.6,29.93,WNW,293,3.4,3.4,64,0.00,,,0.01,WUHU216HW,2013-01-02 03:01:00,
2013-01-01 22:06:00,21.8,11.5,29.92,West,270,1.8,3.4,64,0.00,,,0.01,WUHU216HW,2013-01-02 03:06:00,
2013-01-01 22:11:00,21.6,11.3,29.93,WSW,248,3.8,4.0,64,0.00,,,0.01,WUHU216HW,2013-01-02 03:11:00,
2013-01-01 22:16:00,21.4,11.2,29.93,WNW,293,2.5,4.3,64,0.00,,,0.01,WUHU216HW,2013-01-02 03:16:00,
2013-01-01 22:21:00,21.4,11.2,29.93,West,270,1.3,4.3,64,0.00,,,0.01,WUHU216HW,2013-01-02 03:21:00,
2013-01-01 22:26:00,21.4,11.2,29.93,WSW,248,1.8,4.0,64,0.00,,,0.01,WUHU216HW,2013-01-02 03:26:00,
2013-01-01 22:31:00,21.4,11.2,29.94,WSW,248,3.4,4.0,64,0.00,,,0.01,WUHU216HW,2013-01-02 03:31:00,
2013-01-01 22:36:00,21.2,11.0,29.94,West,270,2.2,4.7,64,0.00,,,0.01,WUHU216HW,2013-01-02 03:36:00,
2013-01-01 22:41:00,21.0,10.8,29.93,West,270,5.4,5.4,64,0.00,,,0.01,WUHU216HW,2013-01-02 03:41:00,
2013-01-01 22:46:00,20.9,10.7,29.93,WNW,293,1.6,5.4,64,0.00,,,0.01,WUHU216HW,2013-01-02 03:46:00,
2013-01-01 22:51:00,20.7,10.5,29.93,North,0,2.7,4.3,64,0.00,,,0.01,WUHU216HW,2013-01-02 03:51:00,
2013-01-01 22:56:00,20.7,10.5,29.93,WSW,248,2.0,5.6,64,0.00,,,0.01,WUHU216HW,2013-01-02 03:56:00,
2013-01-01 23:01:00,20.7,10.5,29.94,West,270,3.4,6.3,64,0.00,,,0.01,WUHU216HW,2013-01-02 04:01:00,
2013-01-01 23:06:00,20.5,10.3,29.94,SW,225,7.6,7.6,64,0.00,,,0.01,WUHU216HW,2013-01-02 04:06:00,
2013-01-01 23:11:00,20.5,10.3,29.93,SSW,203,4.7,7.6,64,0.00,,,0.01,WUHU216HW,2013-01-02 04:11:00,
2013-01-01 23:16:00,20.3,10.1,29.93,West,270,3.6,7.2,64,0.00,,,0.01,WUHU216HW,2013-01-02 04:16:00,
2013-01-01 23:21:00,20.3,10.1,29.94,WSW,248,5.6,7.2,64,0.00,,,0.01,WUHU216HW,2013-01-02 04:21:00,
2013-01-01 23:26:00,20.1,9.9,29.93,West,270,4.3,6.5,64,0.00,,,0.01,WUHU216HW,2013-01-02 04:26:00,
2013-01-01 23:31:00,20.1,9.9,29.93,West,270,3.8,6.5,64,0.00,,,0.01,WUHU216HW,2013-01-02 04:31:00,
2013-01-01 23:36:00,20.1,9.9,29.93,West,270,2.7,7.2,64,0.00,,,0.01,WUHU216HW,2013-01-02 04:36:00,
2013-01-01 23:41:00,20.0,10.2,29.93,West,270,3.6,7.2,65,0.00,,,0.01,WUHU216HW,2013-01-02 04:41:00,
2013-01-01 23:46:00,20.0,10.2,29.93,West,270,2.2,6.3,65,0.00,,,0.01,WUHU216HW,2013-01-02 04:46:00,
2013-01-01 23:51:00,20.0,10.2,29.93,WNW,293,4.0,5.4,65,0.00,,,0.01,WUHU216HW,2013-01-02 04:51:00,
2013-01-01 23:56:00,20.0,10.2,29.94,WNW,293,1.6,4.5,65,0.00,,,0.01,WUHU216HW,2013-01-02 04:56:00,